Time,TemperatureF,DewpointF,PressureIn,WindDirection,WindDirectionDegrees,WindSpeedMPH,WindSpeedGustMPH,Humidity,HourlyPrecipIn,Conditions,Clouds,dailyrainin,SoftwareType,DateUTC
2013-01-01 00:12:00,33.2,24.0,29.98,SW,230,2.0,-999.0,70,-99.99,,,0.00,weatherlink.com 1.10,2013-01-01 05:12:00,
2013-01-01 00:26:00,33.2,24.0,29.99,SSW,198,2.0,-999.0,69,-99.99,,,0.00,weatherlink.com 1.10,2013-01-01 05:26:00,
2013-01-01 00:41:00,33.4,24.0,29.98,SSW,198,5.0,-999.0,68,-99.99,,,0.00,weatherlink.com 1.10,2013-01-01 05:41:00,
2013-01-01 00:56:00,33.4,24.0,29.98,South,182,0.0,-999.0,68,-99.99,,,0.00,weatherlink.com 1.10,2013-01-01 05:56:00,
2013-01-01 01:11:00,33.2,24.0,29.98,South,176,4.0,-999.0,70,-99.99,,,0.00,weatherlink.com 1.10,2013-01-01 06:11:00,
2013-01-01 01:26:00,32.8,25.0,29.98,WSW,239,2.0,-999.0,73,-99.99,,,0.00,weatherlink.com 1.10,2013-01-01 06:26:00,
2013-01-01 01:41:00,32.7,25.0,29.97,SSW,196,0.0,-999.0,74,-99.99,,,0.00,weatherlink.com 1.10,2013-01-01 06:41:00,
2013-01-01 01:56:00,32.8,25.0,29.96,SSE,155,3.0,-999.0,74,-99.99,,,0.00,weatherlink.com 1.10,2013-01-01 06:56:00,
2013-01-01 02:11:00,31.9,26.0,29.96,South,181,0.0,-999.0,80,-99.99,,,0.00,weatherlink.com 1.10,2013-01-01 07:11:00,
2013-01-01 02:27:00,31.5,27.0,29.98,SSW,202,1.0,-999.0,83,-99.99,,,0.00,weatherlink.com 1.10,2013-01-01 07:27:00,
2013-01-01 02:42:00,31.3,27.0,29.99,SW,222,1.0,-999.0,84,-99.99,,,0.00,weatherlink.com 1.10,2013-01-01 07:42:00,
2013-01-01 02:57:00,31.2,27.0,29.99,South,175,1.0,-999.0,85,-99.99,,,0.00,weatherlink.com 1.10,2013-01-01 07:57:00,
2013-01-01 03:12:00,30.9,28.0,29.99,South,182,5.0,-999.0,87,-99.99,,,0.00,weatherlink.com 1.10,2013-01-01 08:12:00,
2013-01-01 03:27:00,30.7,28.0,29.98,SSW,205,4.0,-999.0,88,-99.99,,,0.00,weatherlink.com 1.10,2013-01-01 08:27:00,
2013-01-01 03:42:00,30.6,28.0,29.98,South,184,3.0,-999.0,88,-99.99,,,0.00,weatherlink.com 1.10,2013-01-01 08:42:00,
2013-01-01 03:57:00,30.6,28.0,29.97,SW,215,5.0,-999.0,89,-99.99,,,0.00,weatherlink.com 1.10,2013-01-01 08:57:00,
2013-01-01 04:12:00,30.6,28.0,29.97,South,185,5.0,-999.0,89,-99.99,,,0.00,weatherlink.com 1.10,2013-01-01 09:12:00,
2013-01-01 04:27:00,30.4,28.0,29.97,SSE,148,5.0,-999.0,90,-99.99,,,0.00,weatherlink.com 1.10,2013-01-01 09:27:00,
2013-01-01 04:42:00,30.6,28.0,29.97,SW,232,3.0,-999.0,90,-99.99,,,0.00,weatherlink.com 1.10,2013-01-01 09:42:00,
2013-01-01 04:57:00,30.6,28.0,29.97,South,175,3.0,-999.0,90,-99.99,,,0.00,weatherlink.com 1.10,2013-01-01 09:57:00,
2013-01-01 05:12:00,30.6,28.0,29.95,South,182,0.0,-999.0,91,-99.99,,,0.00,weatherlink.com 1.10,2013-01-01 10:12:00,
2013-01-01 05:27:00,30.6,28.0,29.95,South,188,2.0,-999.0,91,-99.99,,,0.00,weatherlink.com 1.10,2013-01-01 10:27:00,
2013-01-01 05:42:00,30.7,28.0,29.95,South,188,2.0,-999.0,91,-99.99,,,0.00,weatherlink.com 1.10,2013-01-01 10:42:00,
2013-01-01 05:57:00,30.7,28.0,29.95,South,189,1.0,-999.0,91,-99.99,,,0.00,weatherlink.com 1.10,2013-01-01 10:57:00,
2013-01-01 06:12:00,30.7,28.0,29.95,South,174,0.0,-999.0,91,-99.99,,,0.00,weatherlink.com 1.10,2013-01-01 11:12:00,
2013-01-01 06:27:00,30.7,29.0,29.95,South,172,0.0,-999.0,92,-99.99,,,0.00,weatherlink.com 1.10,2013-01-01 11:27:00,
2013-01-01 06:42:00,30.9,29.0,29.95,South,176,0.0,-999.0,92,-99.99,,,0.00,weatherlink.com 1.10,2013-01-01 11:42:00,
2013-01-01 06:57:00,30.7,29.0,29.94,South,176,0.0,-999.0,92,-99.99,,,0.00,weatherlink.com 1.10,2013-01-01 11:57:00,
2013-01-01 07:12:00,30.9,29.0,29.95,South,176,4.0,-999.0,92,-99.99,,,0.00,weatherlink.com 1.10,2013-01-01 12:12:00,
2013-01-01 07:27:00,30.9,29.0,29.95,South,181,0.0,-999.0,92,-99.99,,,0.00,weatherlink.com 1.10,2013-01-01 12:27:00,
2013-01-01 07:42:00,30.9,29.0,29.96,South,182,0.0,-999.0,92,-99.99,,,0.00,weatherlink.com 1.10,2013-01-01 12:42:00,
2013-01-01 07:57:00,30.9,29.0,29.96,SSW,193,0.0,-999.0,92,-99.99,,,0.00,weatherlink.com 1.10,2013-01-01 12:57:00,
2013-01-01 08:12:00,30.9,29.0,29.95,South,191,0.0,-999.0,92,-99.99,,,0.00,weatherlink.com 1.10,2013-01-01 13:12:00,
2013-01-01 08:26:00,31.0,29.0,29.96,South,188,1.0,-999.0,92,-99.99,,,0.00,weatherlink.com 1.10,2013-01-01 13:26:00,
2013-01-01 08:42:00,31.0,29.0,29.96,SSW,193,3.0,-999.0,92,-99.99,,,0.00,weatherlink.com 1.10,2013-01-01 13:42:00,
2013-01-01 08:57:00,31.0,29.0,29.97,SW,217,0.0,-999.0,92,-99.99,,,0.00,weatherlink.com 1.10,2013-01-01 13:57:00,
2013-01-01 09:12:00,31.2,29.0,29.97,South,185,3.0,-999.0,92,-99.99,,,0.00,weatherlink.com 1.10,2013-01-01 14:12:00,
2013-01-01 09:27:00,31.3,29.0,29.97,SSW,192,3.0,-999.0,92,-99.99,,,0.00,weatherlink.com 1.10,2013-01-01 14:27:00,
2013-01-01 09:42:00,31.5,30.0,29.97,SSW,205,2.0,-999.0,92,-99.99,,,0.00,weatherlink.com 1.10,2013-01-01 14:42:00,
2013-01-01 09:57:00,31.5,30.0,29.96,South,171,0.0,-999.0,92,-99.99,,,0.00,weatherlink.com 1.10,2013-01-01 14:57:00,
2013-01-01 10:12:00,31.5,30.0,29.96,SSW,208,0.0,-999.0,92,-99.99,,,0.00,weatherlink.com 1.10,2013-01-01 15:12:00,
2013-01-01 10:27:00,31.5,30.0,29.97,SSW,193,6.0,-999.0,92,-99.99,,,0.00,weatherlink.com 1.10,2013-01-01 15:27:00,
2013-01-01 10:42:00,31.6,30.0,29.97,SSW,198,1.0,-999.0,92,-99.99,,,0.00,weatherlink.com 1.10,2013-01-01 15:42:00,
2013-01-01 10:57:00,31.8,30.0,29.98,South,191,1.0,-999.0,92,-99.99,,,0.00,weatherlink.com 1.10,2013-01-01 15:57:00,
2013-01-01 11:12:00,31.6,30.0,29.97,South,191,2.0,-999.0,92,-99.99,,,0.00,weatherlink.com 1.10,2013-01-01 16:12:00,
2013-01-01 11:27:00,31.5,30.0,29.96,South,191,1.0,-999.0,92,-99.99,,,0.00,weatherlink.com 1.10,2013-01-01 16:27:00,
2013-01-01 11:42:00,31.6,30.0,29.96,South,191,0.0,-999.0,92,-99.99,,,0.00,weatherlink.com 1.10,2013-01-01 16:42:00,
2013-01-01 11:57:00,31.5,30.0,29.95,South,191,0.0,-999.0,92,-99.99,,,0.00,weatherlink.com 1.10,2013-01-01 16:57:00,
2013-01-01 12:12:00,31.5,30.0,29.93,South,191,0.0,-999.0,92,-99.99,,,0.00,weatherlink.com 1.10,2013-01-01 17:12:00,
2013-01-01 12:27:00,31.5,30.0,29.93,SSW,192,0.0,-999.0,92,-99.99,,,0.00,weatherlink.com 1.10,2013-01-01 17:27:00,
2013-01-01 12:42:00,31.3,29.0,29.92,West,270,1.0,-999.0,92,-99.99,,,0.00,weatherlink.com 1.10,2013-01-01 17:42:00,
2013-01-01 12:57:00,31.3,29.0,29.92,WNW,301,0.0,-999.0,92,-99.99,,,0.00,weatherlink.com 1.10,2013-01-01 17:57:00,
2013-01-01 13:12:00,31.3,29.0,29.92,WNW,292,0.0,-999.0,92,-99.99,,,0.00,weatherlink.com 1.10,2013-01-01 18:12:00,
2013-01-01 13:27:00,31.3,29.0,29.91,WNW,285,4.0,-999.0,92,-99.99,,,0.00,weatherlink.com 1.10,2013-01-01 18:27:00,
2013-01-01 13:42:00,31.3,29.0,29.92,WNW,287,0.0,-999.0,92,-99.99,,,0.00,weatherlink.com 1.10,2013-01-01 18:42:00,
2013-01-01 13:57:00,31.5,30.0,29.90,WNW,287,0.0,-999.0,92,-99.99,,,0.00,weatherlink.com 1.10,2013-01-01 18:57:00,
2013-01-01 14:12:00,31.5,30.0,29.90,West,277,0.0,-999.0,92,-99.99,,,0.00,weatherlink.com 1.10,2013-01-01 19:12:00,
2013-01-01 14:27:00,31.5,30.0,29.91,West,274,2.0,-999.0,92,-99.99,,,0.00,weatherlink.com 1.10,2013-01-01 19:27:00,
2013-01-01 14:42:00,31.5,29.0,29.91,West,274,0.0,-999.0,91,-99.99,,,0.00,weatherlink.com 1.10,2013-01-01 19:42:00,
2013-01-01 14:57:00,31.5,29.0,29.90,West,274,0.0,-999.0,91,-99.99,,,0.00,weatherlink.com 1.10,2013-01-01 19:57:00,
2013-01-01 15:12:00,31.3,29.0,29.90,NW,312,5.0,-999.0,91,-99.99,,,0.00,weatherlink.com 1.10,2013-01-01 20:12:00,
2013-01-01 15:27:00,31.3,29.0,29.93,NW,311,2.0,-999.0,90,-99.99,,,0.00,weatherlink.com 1.10,2013-01-01 20:27:00,
2013-01-01 15:42:00,31.2,29.0,29.93,NW,311,0.0,-999.0,90,-99.99,,,0.00,weatherlink.com 1.10,2013-01-01 20:42:00,
2013-01-01 15:57:00,31.2,29.0,29.93,NW,308,0.0,-999.0,90,-99.99,,,0.00,weatherlink.com 1.10,2013-01-01 20:57:00,
2013-01-01 16:12:00,31.2,29.0,29.93,NW,304,0.0,-999.0,90,-99.99,,,0.00,weatherlink.com 1.10,2013-01-01 21:12:00,
2013-01-01 16:27:00,31.2,29.0,29.94,NW,305,0.0,-999.0,90,-99.99,,,0.00,weatherlink.com 1.10,2013-01-01 21:27:00,
2013-01-01 16:42:00,31.0,29.0,29.94,NW,305,0.0,-999.0,90,-99.99,,,0.00,weatherlink.com 1.10,2013-01-01 21:42:00,
2013-01-01 16:57:00,30.7,28.0,29.95,NW,309,7.0,-999.0,89,-99.99,,,0.00,weatherlink.com 1.10,2013-01-01 21:57:00,
2013-01-01 17:12:00,30.4,28.0,29.95,NNW,329,4.0,-999.0,89,-99.99,,,0.00,weatherlink.com 1.10,2013-01-01 22:12:00,
2013-01-01 17:27:00,30.4,27.0,29.96,NW,318,3.0,-999.0,88,-99.99,,,0.00,weatherlink.com 1.10,2013-01-01 22:27:00,
2013-01-01 17:42:00,30.3,27.0,29.96,NW,320,6.0,-999.0,88,-99.99,,,0.00,weatherlink.com 1.10,2013-01-01 22:42:00,
2013-01-01 17:57:00,29.7,27.0,29.97,NNW,342,7.0,-999.0,88,-99.99,,,0.00,weatherlink.com 1.10,2013-01-01 22:57:00,
2013-01-01 18:12:00,29.5,26.0,29.96,NW,318,2.0,-999.0,87,-99.99,,,0.00,weatherlink.com 1.10,2013-01-01 23:12:00,
2013-01-01 18:28:00,29.5,26.0,29.96,NNW,328,2.0,-999.0,85,-99.99,,,0.00,weatherlink.com 1.10,2013-01-01 23:28:00,
2013-01-01 18:42:00,29.5,25.0,29.97,NNW,328,0.0,-999.0,84,-99.99,,,0.00,weatherlink.com 1.10,2013-01-01 23:42:00,
2013-01-01 18:57:00,29.4,25.0,29.97,NNW,328,0.0,-999.0,84,-99.99,,,0.00,weatherlink.com 1.10,2013-01-01 23:57:00,
2013-01-01 19:13:00,29.4,25.0,29.97,NW,325,0.0,-999.0,83,-99.99,,,0.00,weatherlink.com 1.10,2013-01-02 00:13:00,
2013-01-01 19:28:00,29.3,24.0,29.97,NW,318,5.0,-999.0,82,-99.99,,,0.00,weatherlink.com 1.10,2013-01-02 00:28:00,
2013-01-01 19:43:00,29.3,24.0,29.98,NNW,329,5.0,-999.0,80,-99.99,,,0.00,weatherlink.com 1.10,2013-01-02 00:43:00,
2013-01-01 19:58:00,29.1,24.0,29.98,NW,315,3.0,-999.0,80,-99.99,,,0.00,weatherlink.com 1.10,2013-01-02 00:58:00,
2013-01-01 20:13:00,29.0,24.0,29.98,NNW,333,2.0,-999.0,80,-99.99,,,0.00,weatherlink.com 1.10,2013-01-02 01:13:00,
2013-01-01 20:28:00,28.8,23.0,29.98,NNW,333,1.0,-999.0,80,-99.99,,,0.00,weatherlink.com 1.10,2013-01-02 01:28:00,
2013-01-01 20:43:00,28.7,23.0,29.97,NNW,333,0.0,-999.0,80,-99.99,,,0.00,weatherlink.com 1.10,2013-01-02 01:43:00,
2013-01-01 20:58:00,28.4,23.0,29.97,NNW,328,4.0,-999.0,80,-99.99,,,0.00,weatherlink.com 1.10,2013-01-02 01:58:00,
2013-01-01 21:13:00,28.2,22.0,29.97,NW,326,2.0,-999.0,79,-99.99,,,0.00,weatherlink.com 1.10,2013-01-02 02:13:00,
2013-01-01 21:28:00,28.1,22.0,29.98,NNW,328,5.0,-999.0,79,-99.99,,,0.00,weatherlink.com 1.10,2013-01-02 02:28:00,
2013-01-01 21:43:00,28.1,23.0,29.98,NNW,328,1.0,-999.0,80,-99.99,,,0.00,weatherlink.com 1.10,2013-01-02 02:43:00,
2013-01-01 21:58:00,27.8,22.0,29.98,NNW,328,1.0,-999.0,80,-99.99,,,0.00,weatherlink.com 1.10,2013-01-02 02:58:00,
2013-01-01 22:13:00,27.6,22.0,29.98,NW,313,0.0,-999.0,80,-99.99,,,0.00,weatherlink.com 1.10,2013-01-02 03:13:00,
2013-01-01 22:28:00,27.5,22.0,29.99,NW,315,1.0,-999.0,80,-99.99,,,0.00,weatherlink.com 1.10,2013-01-02 03:28:00,
2013-01-01 22:43:00,27.3,22.0,29.98,NNW,337,3.0,-999.0,79,-99.99,,,0.00,weatherlink.com 1.10,2013-01-02 03:43:00,
2013-01-01 22:58:00,26.9,22.0,29.99,NNW,339,7.0,-999.0,81,-99.99,,,0.00,weatherlink.com 1.10,2013-01-02 03:58:00,
2013-01-01 23:13:00,26.3,22.0,29.99,NNW,344,6.0,-999.0,82,-99.99,,,0.00,weatherlink.com 1.10,2013-01-02 04:13:00,
2013-01-01 23:28:00,26.0,22.0,30.00,North,349,2.0,-999.0,83,-99.99,,,0.00,weatherlink.com 1.10,2013-01-02 04:28:00,
2013-01-01 23:43:00,25.8,21.0,30.00,North,350,6.0,-999.0,83,-99.99,,,0.00,weatherlink.com 1.10,2013-01-02 04:43:00,
2013-01-01 23:58:00,25.7,21.0,29.99,North,0,5.0,-999.0,82,-99.99,,,0.00,weatherlink.com 1.10,2013-01-02 04:58:00,